Union Aéronautique de la Côte d'Azur

Union Aéronautique de la Côte d'Azur
UACA
Approuvé A.T.O. EASA – N°FR.ATO.0108

UNION des aéroclubs
Cannes “Ailes d’Azur”, Nice “Côte d’Azur”, Grasse “St Exupery”, ACCA “Francis Séverac”

Un cache-pitot se trouve à bord de chaque avion. Pensez à le mettre en place à la fin de chaque vol !

Avant de quitter l'avion, vérifiez que vous n'emportez pas la checklist

Un vol ne s'entreprend qu'avec un pare-brise parfaitement propre, il en va de votre sécurité, et de celle des autres

Après chaque vol, merci de mettre en place les pares-soleil!


Météo à Cannes:
METAR
LFMD 130600Z AUTO VRB03KT CAVOK 21/17 Q1018 NOSIG =
LFMD 130200Z 1303/1403 VRB03KT CAVOK BECMG 1307/1309 10010KT BECMG 1317/1319 VRB03KT PROB30 TEMPO 1400/1403 4000 BR BKN006

TAF
LFMD 130200Z 1303/1403 VRB03KT CAVOK BECMG 1307/1309 10010KT BECMG 1317/1319 VRB03KT PROB30 TEMPO 1400/1403 4000 BR BKN006 =

SR / SS: 03:45 / 19:19 UTC (LFMD 2021-06-13)